When you browse on this site, cookies collect data to enhance your experience and personalize the content and advertising you see.
Visit our Privacy Policy to learn more. By continuing to use the site, you agree to this use of cookies and data.
  • In Hungary
  • List of Countries
  • For 7 days
  • Water Temperature
  • Weather Map
  • News
  • Weather Widgets
  • user-avatar
    Login

    Hourly Weather Rudkovo

    Today, 24 August, Saturday

    Time Temperature Precipitation Wind Pressure Humidity
    00:00 +14°C° 0 mm 2 mps 755 mmHg 90%
    01:00 +13°C° 0 mm 2 mps 755 mmHg 91%
    02:00 +13°C° 0 mm 2 mps 755 mmHg 92%
    03:00 +13°C° 0 mm 2 mps 755 mmHg 91%
    04:00 +13°C° 0 mm 2 mps 754 mmHg 91%
    05:00 +13°C° 0 mm 2 mps 754 mmHg 90%
    06:00 +13°C° 0 mm 3 mps 754 mmHg 84%
    07:00 +16°C° 0 mm 3 mps 754 mmHg 78%
    08:00 +18°C° 0 mm 3 mps 754 mmHg 72%
    09:00 +19°C° 0 mm 4 mps 754 mmHg 67%
    10:00 +21°C° 0 mm 4 mps 754 mmHg 62%
    11:00 +22°C° 0 mm 4 mps 754 mmHg 56%
    12:00 +22°C° 0 mm 4 mps 754 mmHg 56%
    13:00 +23°C° 0 mm 4 mps 753 mmHg 57%
    14:00 +23°C° 0 mm 4 mps 753 mmHg 57%
    15:00 +24°C° 0.1 mm 3 mps 753 mmHg 62%
    16:00 +22°C° 0.1 mm 3 mps 753 mmHg 67%
    17:00 +23°C° 0.1 mm 2 mps 753 mmHg 72%
    18:00 +20°C° 0 mm 2 mps 753 mmHg 78%
    19:00 +18°C° 0 mm 2 mps 753 mmHg 84%
    20:00 +16°C° 0 mm 1 mps 753 mmHg 90%
    21:00 +16°C° 0 mm 1 mps 753 mmHg 91%
    22:00 +15°C° 0 mm 1 mps 754 mmHg 92%
    23:00 +14°C° 0 mm 1 mps 754 mmHg 93%

    Tomorrow, 25 August, Sunday

    Time Temperature Precipitation Wind Pressure Humidity
    00:00 +14°C° 0 mm 1 mps 754 mmHg 94%
    01:00 +13°C° 0 mm 1 mps 754 mmHg 95%
    02:00 +13°C° 0 mm 1 mps 755 mmHg 95%
    03:00 +12°C° 0 mm 1 mps 755 mmHg 96%
    04:00 +12°C° 0 mm 1 mps 755 mmHg 96%
    05:00 +11°C° 0 mm 1 mps 755 mmHg 96%
    06:00 +13°C° 0 mm 1 mps 755 mmHg 91%
    07:00 +14°C° 0 mm 1 mps 755 mmHg 85%
    08:00 +15°C° 0 mm 1 mps 756 mmHg 80%
    09:00 +17°C° 0 mm 2 mps 756 mmHg 73%
    10:00 +18°C° 0 mm 2 mps 756 mmHg 66%
    11:00 +20°C° 0 mm 2 mps 756 mmHg 59%
    12:00 +22°C° 0 mm 1 mps 756 mmHg 57%
    13:00 +22°C° 0 mm 1 mps 756 mmHg 54%
    14:00 +23°C° 0 mm 1 mps 756 mmHg 52%
    15:00 +23°C° 0 mm 1 mps 756 mmHg 56%
    16:00 +22°C° 0 mm 1 mps 756 mmHg 60%
    17:00 +22°C° 0 mm 1 mps 756 mmHg 63%
    18:00 +20°C° 0 mm 1 mps 756 mmHg 70%
    19:00 +18°C° 0 mm 1 mps 756 mmHg 77%
    20:00 +15°C° 0 mm 1 mps 756 mmHg 83%
    21:00 +14°C° 0 mm 1 mps 756 mmHg 85%
    22:00 +13°C° 0 mm 1 mps 756 mmHg 87%
    23:00 +13°C° 0 mm 1 mps 756 mmHg 89%

    Day after tomorrow, 26 August, Monday

    Time Temperature Precipitation Wind Pressure Humidity
    00:00 +13°C° 0 mm 1 mps 756 mmHg 90%
    01:00 +11°C° 0 mm 0 mps 756 mmHg 91%
    02:00 +11°C° 0 mm 0 mps 756 mmHg 92%
    03:00 +12°C° 0 mm 1 mps 756 mmHg 93%
    04:00 +11°C° 0 mm 1 mps 756 mmHg 94%
    05:00 +11°C° 0 mm 1 mps 756 mmHg 94%
    06:00 +13°C° 0 mm 1 mps 756 mmHg 87%
    07:00 +15°C° 0 mm 1 mps 756 mmHg 80%
    08:00 +18°C° 0 mm 1 mps 756 mmHg 73%
    09:00 +20°C° 0 mm 1 mps 756 mmHg 67%
    10:00 +21°C° 0 mm 1 mps 755 mmHg 61%
    11:00 +23°C° 0 mm 1 mps 755 mmHg 55%
    12:00 +23°C° 0 mm 2 mps 755 mmHg 53%
    13:00 +24°C° 0 mm 2 mps 755 mmHg 52%
    14:00 +25°C° 0 mm 2 mps 754 mmHg 51%
    15:00 +24°C° 0 mm 2 mps 754 mmHg 56%
    16:00 +24°C° 0 mm 1 mps 754 mmHg 61%
    17:00 +24°C° 0 mm 1 mps 753 mmHg 66%
    18:00 +22°C° 0 mm 1 mps 753 mmHg 72%
    19:00 +20°C° 0 mm 1 mps 753 mmHg 79%
    20:00 +18°C° 0 mm 1 mps 752 mmHg 85%
    21:00 +18°C° 0 mm 1 mps 752 mmHg 87%
    22:00 +16°C° 0 mm 2 mps 752 mmHg 88%
    23:00 +16°C° 0 mm 2 mps 752 mmHg 90%

    27 August, Tuesday

    Time Temperature Precipitation Wind Pressure Humidity
    00:00 +16°C° 0 mm 2 mps 752 mmHg 92%
    01:00 +16°C° 0 mm 2 mps 752 mmHg 94%
    02:00 +16°C° 0 mm 2 mps 752 mmHg 97%
    03:00 +15°C° 0 mm 2 mps 751 mmHg 97%
    04:00 +15°C° 0 mm 2 mps 751 mmHg 97%
    05:00 +15°C° 0 mm 2 mps 751 mmHg 97%
    06:00 +15°C° 0 mm 2 mps 751 mmHg 91%
    07:00 +16°C° 0 mm 2 mps 751 mmHg 86%
    08:00 +17°C° 0 mm 2 mps 751 mmHg 81%
    09:00 +19°C° 0 mm 3 mps 752 mmHg 76%
    10:00 +20°C° 0 mm 3 mps 752 mmHg 72%
    11:00 +21°C° 0 mm 3 mps 752 mmHg 68%
    12:00 +22°C° 0.1 mm 3 mps 752 mmHg 64%
    13:00 +22°C° 0.1 mm 4 mps 752 mmHg 61%
    14:00 +22°C° 0.1 mm 4 mps 752 mmHg 57%
    15:00 +21°C° 0 mm 3 mps 752 mmHg 59%
    16:00 +21°C° 0 mm 3 mps 752 mmHg 60%
    17:00 +20°C° 0 mm 3 mps 752 mmHg 61%
    18:00 +18°C° 0 mm 2 mps 752 mmHg 68%
    19:00 +16°C° 0 mm 2 mps 752 mmHg 75%
    20:00 +14°C° 0 mm 2 mps 753 mmHg 82%
    21:00 +14°C° 0 mm 2 mps 753 mmHg 85%
    22:00 +13°C° 0 mm 2 mps 753 mmHg 87%
    23:00 +12°C° 0 mm 1 mps 754 mmHg 90%

    28 August, Wednesday

    Time Temperature Precipitation Wind Pressure Humidity
    00:00 +12°C° 0 mm 1 mps 754 mmHg 92%
    01:00 +11°C° 0 mm 1 mps 754 mmHg 94%
    02:00 +11°C° 0 mm 1 mps 754 mmHg 96%
    03:00 +10°C° 0 mm 1 mps 754 mmHg 96%
    04:00 +10°C° 0 mm 1 mps 755 mmHg 96%
    05:00 +9°C° 0 mm 1 mps 755 mmHg 96%
    06:00 +11°C° 0 mm 1 mps 755 mmHg 87%
    07:00 +13°C° 0 mm 1 mps 755 mmHg 78%
    08:00 +14°C° 0 mm 1 mps 755 mmHg 70%
    09:00 +16°C° 0 mm 1 mps 755 mmHg 62%
    10:00 +17°C° 0 mm 2 mps 755 mmHg 54%
    11:00 +18°C° 0 mm 2 mps 755 mmHg 46%
    12:00 +18°C° 0 mm 2 mps 755 mmHg 45%
    13:00 +19°C° 0 mm 2 mps 755 mmHg 45%
    14:00 +19°C° 0 mm 2 mps 755 mmHg 45%
    15:00 +19°C° 0 mm 2 mps 755 mmHg 49%
    16:00 +18°C° 0 mm 2 mps 755 mmHg 54%
    17:00 +18°C° 0 mm 2 mps 754 mmHg 58%
    18:00 +16°C° 0 mm 2 mps 754 mmHg 64%
    19:00 +14°C° 0 mm 2 mps 755 mmHg 70%
    20:00 +12°C° 0 mm 2 mps 755 mmHg 76%
    21:00 +10°C° 0 mm 2 mps 755 mmHg 77%
    22:00 +10°C° 0 mm 1 mps 755 mmHg 79%
    23:00 +10°C° 0 mm 1 mps 755 mmHg 80%

    29 August, Thursday

    Time Temperature Precipitation Wind Pressure Humidity
    00:00 +9°C° 0 mm 1 mps 755 mmHg 81%
    01:00 +9°C° 0 mm 1 mps 755 mmHg 83%
    02:00 +8°C° 0 mm 1 mps 755 mmHg 84%
    03:00 +8°C° 0 mm 1 mps 755 mmHg 83%
    04:00 +8°C° 0 mm 1 mps 755 mmHg 82%
    05:00 +7°C° 0 mm 1 mps 755 mmHg 82%
    06:00 +9°C° 0 mm 1 mps 755 mmHg 74%
    07:00 +11°C° 0 mm 1 mps 756 mmHg 67%
    08:00 +13°C° 0 mm 1 mps 756 mmHg 60%
    09:00 +15°C° 0 mm 1 mps 756 mmHg 54%
    10:00 +16°C° 0 mm 2 mps 756 mmHg 49%
    11:00 +18°C° 0 mm 2 mps 756 mmHg 43%
    12:00 +18°C° 0 mm 2 mps 755 mmHg 44%
    13:00 +19°C° 0 mm 2 mps 755 mmHg 45%
    14:00 +20°C° 0 mm 2 mps 755 mmHg 45%
    15:00 +20°C° 0 mm 1 mps 755 mmHg 51%
    16:00 +20°C° 0 mm 1 mps 755 mmHg 56%
    17:00 +20°C° 0 mm 1 mps 755 mmHg 61%
    18:00 +18°C° 0 mm 1 mps 755 mmHg 66%
    19:00 +15°C° 0 mm 1 mps 755 mmHg 71%
    20:00 +13°C° 0 mm 1 mps 754 mmHg 76%
    21:00 +12°C° 0 mm 1 mps 755 mmHg 77%
    22:00 +11°C° 0 mm 1 mps 755 mmHg 77%
    23:00 +9°C° 0 mm 2 mps 755 mmHg 78%
    Show more